GEFSSE_con_cape1000_342.txt.gz
Probability
42 42 61 58 48 61 52 42 42 42 48 52 58 58 65 61 58 65 71 65 65 61 55 68 74 68 58 52 61 58 61 68 71 61 58 61 52 55 48 42 32 19 52
29 45 71 68 58 58 52 48 48 52 48 52 52 58 61 65 58 61 68 61 65 65 55 61 68 65 55 55 52 55 55 55 58 45 45 42 42 42 45 48 48 32 42
26 42 58 71 65 52 48 52 52 52 48 48 52 61 65 65 55 55 52 55 55 55 65 58 55 55 58 58 58 52 55 55 58 42 39 26 29 35 39 42 52 45 42
26 35 42 71 68 65 61 58 55 52 45 48 48 58 61 65 55 55 55 52 55 55 58 55 52 45 52 48 48 39 45 42 55 45 26 19 13 35 45 42 55 45 48
26 32 71 74 68 68 61 58 58 55 52 45 48 52 58 52 52 48 45 52 42 52 52 52 48 52 52 42 42 39 42 39 45 48 29 19 16 42 52 52 45 45 45
29 26 55 74 71 68 61 55 58 55 48 48 52 55 58 55 48 48 42 52 45 48 55 55 55 55 58 45 39 35 35 48 52 23 35 23 23 48 55 45 48 39 39
23 35 45 71 71 65 58 55 45 42 42 42 48 48 52 52 52 42 39 48 48 55 55 58 55 55 52 48 45 45 32 48 42 32 32 45 48 65 58 45 48 45 32
19 26 42 71 71 68 55 48 45 45 42 39 35 29 42 55 48 52 45 42 48 48 55 58 61 55 42 52 42 42 39 39 29 10 32 39 52 58 52 55 39 42 39
13 23 32 39 61 61 55 48 48 45 42 35 32 39 35 45 52 52 58 58 48 52 58 48 58 55 39 45 39 42 39 42 32 16 13 26 61 61 48 39 29 32 42
19 26 26 32 35 35 39 55 48 45 39 45 42 45 45 48 55 61 61 52 52 45 42 48 45 42 35 45 48 48 45 42 29 23 26 32 61 55 45 39 32 35 39
23 26 26 32 29 32 35 32 45 55 48 52 39 45 55 58 55 68 48 68 52 55 52 52 48 48 42 45 52 48 39 29 26 19 29 45 65 48 39 39 39 32 32
26 26 29 29 29 29 26 35 52 39 58 58 68 55 58 68 74 48 52 71 61 68 68 65 52 52 48 29 29 35 32 23 19 16 35 52 58 52 42 42 39 29 19
29 29 29 39 45 35 45 45 55 61 68 58 61 68 71 61 61 61 61 61 61 58 61 58 52 39 32 29 23 23 23 26 19 19 32 58 52 48 45 45 39 35 23
29 29 29 39 55 55 55 58 52 55 61 58 61 65 61 68 61 65 71 68 61 58 55 58 52 45 29 23 26 23 19 16 19 23 35 52 45 42 39 35 32 29 23
39 29 48 55 65 68 74 71 61 61 61 58 74 65 71 71 71 65 68 68 61 61 61 61 55 48 52 39 26 23 16 19 19 23 39 55 48 35 35 39 39 35 39
35 32 52 55 68 71 71 68 68 65 71 58 58 68 71 65 71 68 71 68 65 65 61 58 61 58 52 52 35 39 35 29 26 32 29 42 55 45 45 45 42 35 42
42 55 61 65 71 71 71 68 68 68 58 65 68 68 65 71 71 68 65 74 71 68 68 61 58 61 58 55 48 48 45 45 39 39 42 39 45 52 52 45 45 48 55
58 65 65 42 68 81 81 77 71 68 68 65 65 61 65 68 71 74 65 58 71 65 74 65 55 52 61 58 55 48 48 48 39 48 42 45 48 35 45 52 55 55 58
68 68 71 68 68 74 74 77 74 74 77 71 65 61 65 61 61 58 65 65 68 65 65 61 68 65 61 55 48 48 55 55 55 39 42 48 48 52 42 52 65 65 58
58 74 71 74 81 81 77 77 77 77 77 77 71 65 55 58 58 58 65 74 68 71 71 71 68 68 61 65 29 42 52 52 45 45 42 42 52 52 45 42 48 52 61
65 77 81 71 81 77 77 77 81 81 81 77 71 68 65 61 61 58 55 77 68 65 65 65 61 61 68 65 61 58 55 48 52 52 52 52 52 45 52 58 55 39 42
74 77 77 81 81 87 84 84 84 84 81 74 68 74 71 65 65 52 68 68 65 65 65 65 65 71 58 58 65 58 58 42 45 32 52 52 48 48 42 39 45 45 48
61 68 68 74 84 87 87 87 87 87 87 77 74 74 68 61 58 61 65 65 71 65 65 65 65 61 58 58 55 55 52 45 52 48 48 48 42 45 35 35 45 45 45
55 61 74 77 77 84 81 81 84 81 77 77 81 74 74 65 55 58 61 55 61 61 68 65 65 58 55 52 52 48 45 55 48 45 45 48 45 45 35 32 29 39 42
42 52 68 74 81 77 77 77 77 74 74 74 77 74 77 71 65 58 52 55 58 58 61 61 58 55 52 48 48 45 45 48 48 48 45 39 32 35 39 39 35 39 35
42 52 55 74 81 81 74 74 77 74 77 77 74 74 68 61 68 61 58 58 65 65 65 58 55 65 58 48 48 45 42 42 39 39 35 35 35 35 39 35 39 35 42

GEFSSE_con_cape1000_348.txt.gz
Probability
13 35 68 55 65 58 61 61 61 68 61 61 61 61 65 74 77 77 74 71 74 77 71 71 77 68 71 77 74 74 77 81 74 74 68 68 68 65 71 68 42 39 55
10 39 71 71 68 65 65 68 71 65 61 61 58 61 65 65 65 74 71 74 68 71 65 71 71 68 68 71 71 71 68 68 71 61 58 61 68 65 65 58 45 35 55
13 29 61 71 68 68 61 61 68 71 71 68 65 61 65 65 65 65 65 77 71 74 71 68 68 61 71 65 58 71 74 68 61 55 52 29 29 48 48 58 55 55 48
10 19 39 68 74 71 68 65 68 65 71 68 61 61 61 61 61 65 65 68 71 71 71 71 65 61 58 52 55 61 58 58 55 39 19 16 13 39 52 55 65 45 52
6 23 52 71 77 71 68 65 58 65 65 71 68 68 65 65 61 61 61 58 58 58 61 61 58 55 52 42 55 48 48 52 55 35 6 0 6 29 45 48 55 52 48
3 26 52 74 77 74 65 65 65 61 61 61 68 65 61 61 61 61 61 58 58 61 55 61 61 55 45 42 45 42 45 48 35 6 10 3 6 26 32 42 48 52 42
10 29 52 71 77 77 74 68 61 58 61 58 61 65 65 52 61 58 55 61 61 61 55 55 55 55 48 48 45 45 52 58 26 6 3 3 6 32 42 58 61 52 35
19 26 45 81 68 65 71 74 65 58 58 55 55 58 55 55 58 55 45 48 58 55 52 52 52 42 48 45 45 52 52 39 16 6 6 10 19 42 52 58 58 55 32
16 26 32 42 58 68 68 65 58 61 58 61 52 61 55 48 55 68 61 61 61 61 52 48 42 32 39 42 45 61 55 48 13 3 3 10 35 52 52 48 52 48 42
16 16 16 16 23 32 39 65 61 61 58 58 55 55 68 65 58 61 65 55 55 58 61 58 55 52 48 42 55 58 48 35 6 3 6 16 45 58 48 48 45 39 39
13 16 16 16 16 16 23 35 48 65 61 58 58 65 61 29 39 35 42 58 55 61 65 58 58 55 65 61 65 61 39 19 13 6 6 26 58 61 61 52 48 42 39
13 13 13 16 13 13 10 19 19 23 26 19 19 26 26 16 16 35 48 71 71 74 71 71 68 65 58 26 29 39 16 13 10 10 13 52 45 52 58 52 42 29 26
13 13 10 10 10 10 10 10 13 13 16 16 16 19 16 19 13 16 19 19 48 58 39 35 45 32 23 10 6 6 10 13 13 16 19 52 45 45 52 48 29 29 29
13 16 10 10 10 10 10 10 13 13 26 23 23 23 16 16 16 16 10 16 16 13 19 19 13 13 13 6 6 6 10 10 10 10 13 42 42 45 42 48 35 26 32
6 13 13 10 10 6 10 16 13 16 16 19 29 26 13 16 19 19 16 16 23 19 13 10 10 10 6 10 6 6 6 10 6 3 10 35 35 42 42 52 52 35 35
3 13 10 10 10 13 13 13 13 19 19 19 19 26 13 19 19 13 13 13 16 19 16 16 10 13 6 6 6 6 6 3 6 6 6 23 39 42 52 48 52 45 48
6 16 13 16 16 10 10 13 13 19 23 10 19 26 16 16 19 16 10 16 13 13 16 13 13 13 13 6 6 6 3 6 10 6 6 3 13 42 52 52 52 55 61
6 19 16 23 16 16 16 19 16 23 19 16 10 13 16 16 13 16 10 13 16 16 13 16 13 13 13 10 3 3 3 6 6 6 10 3 3 13 29 42 61 65 61
10 13 13 13 13 19 23 19 23 26 23 19 19 16 16 19 16 13 16 16 16 16 16 16 16 16 19 10 10 3 3 6 6 6 6 6 6 6 6 19 55 52 58
13 13 10 16 19 19 16 26 32 29 23 26 26 23 26 23 23 16 16 16 19 13 10 13 19 16 16 13 16 10 13 13 10 6 6 6 10 6 6 3 13 32 58
19 23 23 23 16 10 23 26 29 29 23 26 26 23 23 26 26 19 23 23 23 19 16 13 19 19 19 16 13 6 6 10 10 13 10 10 6 6 3 6 6 10 13
32 26 19 23 23 26 23 19 23 26 29 32 35 26 29 23 26 23 23 26 29 23 23 19 23 19 13 19 16 10 3 6 10 6 6 6 6 6 6 10 3 6 6
32 32 35 32 32 35 32 29 29 26 26 32 29 29 29 26 26 26 19 26 29 32 29 29 26 19 19 16 13 10 3 3 10 6 3 3 6 6 6 10 6 3 6
32 35 39 39 35 35 35 32 32 23 26 23 32 32 29 26 23 23 26 29 26 32 29 29 26 19 19 16 16 3 3 6 10 6 0 0 6 6 6 6 10 6 10
39 39 39 32 32 35 32 32 29 26 26 26 29 32 26 26 23 23 23 29 32 32 32 29 26 23 19 16 19 16 10 6 6 6 0 0 0 0 0 3 3 3 6
35 39 35 32 35 35 32 29 35 29 29 26 29 35 32 19 19 19 26 26 32 35 32 29 23 29 23 19 16 16 13 6 6 3 0 0 0 0 0 0 0 3 10

GEFSSE_con_cape1000_354.txt.gz
Probability
0 19 48 61 65 58 61 68 58 55 61 65 71 74 61 61 65 61 58 71 71 68 71 71 61 61 58 68 74 77 71 65 61 61 65 65 68 71 68 65 52 32 58
3 26 52 65 61 65 68 68 61 58 58 58 68 71 65 65 61 55 65 68 71 65 68 68 71 65 65 65 74 74 74 71 61 68 58 61 61 65 65 42 39 32 52
16 26 55 58 61 61 65 68 65 65 61 58 71 71 71 74 71 58 61 58 71 68 65 71 71 68 68 61 74 74 68 71 65 65 61 45 48 58 68 45 39 52 52
16 19 39 58 65 61 65 65 65 65 61 58 68 65 65 65 65 65 65 55 55 58 61 61 65 61 65 61 68 61 55 58 58 58 42 32 26 45 55 52 45 39 39
13 19 35 74 65 61 58 65 61 58 61 61 65 68 65 65 61 61 61 61 61 58 61 65 58 55 58 55 58 61 55 48 48 32 16 16 16 26 48 52 55 32 29
10 16 39 68 68 61 58 61 58 58 61 65 58 61 61 61 61 61 58 58 61 58 55 61 58 55 55 55 65 58 48 52 39 13 6 6 10 19 45 55 52 39 26
10 16 42 58 68 68 61 65 68 68 61 65 71 58 61 61 58 52 52 52 55 58 55 58 65 65 61 58 55 52 58 52 19 6 6 10 16 35 39 52 48 42 39
16 26 35 58 74 65 65 65 61 61 58 65 65 65 58 58 55 55 55 55 52 52 55 55 55 58 58 55 48 52 48 32 16 3 6 6 19 32 39 45 48 45 29
19 26 26 42 48 55 61 65 61 55 55 58 61 55 58 55 55 58 61 65 58 55 61 55 52 48 55 52 52 52 55 48 26 10 6 10 19 45 39 32 35 35 23
16 23 23 26 29 26 35 55 65 61 52 48 55 61 61 65 61 58 61 61 68 68 58 58 58 58 55 55 48 45 55 42 23 13 16 19 26 35 39 39 39 32 32
13 16 16 16 16 16 16 39 45 48 52 45 45 58 58 32 29 35 45 58 61 55 61 61 61 65 58 55 58 48 39 23 16 10 13 26 39 39 39 45 42 45 42
13 13 16 16 16 16 23 19 19 19 19 16 13 16 23 19 10 32 42 48 52 55 68 68 71 71 55 35 29 32 16 16 19 13 13 32 45 48 45 48 32 29 39
6 13 13 13 10 10 13 13 19 16 16 16 13 13 13 19 13 16 16 19 16 26 26 32 32 19 19 26 19 10 6 13 16 19 19 32 48 48 42 45 32 29 29
6 10 13 13 10 6 10 10 10 10 13 16 13 13 13 19 13 10 10 6 6 10 13 13 13 10 16 13 16 13 13 16 16 16 16 39 52 48 48 39 42 35 32
6 6 6 6 6 6 10 6 10 10 6 10 10 13 13 13 6 10 6 10 6 10 10 13 13 10 13 10 10 10 13 13 16 16 16 29 48 52 42 39 35 39 35
3 3 3 3 3 3 3 6 6 3 3 3 6 16 10 10 6 10 10 6 6 10 10 10 13 13 3 10 10 10 16 16 13 13 16 23 35 35 35 45 45 48 45
3 3 3 3 3 3 6 6 6 6 3 3 6 6 10 6 6 3 13 6 6 6 6 10 10 6 3 6 10 6 10 10 13 10 6 6 16 26 39 32 39 48 58
0 0 3 6 3 6 6 6 6 6 6 6 13 10 6 10 6 3 6 13 6 6 6 10 10 10 10 10 10 10 10 13 13 10 13 10 13 13 13 29 39 45 48
3 3 3 6 6 6 6 6 6 6 6 6 10 13 6 6 13 10 10 6 3 10 10 10 10 10 13 13 16 13 13 13 13 10 10 10 6 6 6 16 29 48 48
6 0 3 3 3 3 6 6 6 10 10 10 6 10 10 3 16 10 10 10 10 6 6 10 13 16 13 16 23 19 16 13 6 6 6 6 6 6 3 3 6 26 39
10 6 3 10 10 6 6 6 10 10 6 6 13 16 19 16 13 10 16 13 10 10 6 10 16 16 16 16 16 19 16 6 6 6 6 3 3 3 3 0 0 3 10
13 6 6 13 10 10 6 6 10 10 6 6 6 13 19 16 13 16 10 13 6 10 6 10 19 19 19 16 13 10 10 6 6 6 10 10 0 3 3 3 6 3 3
6 13 10 13 13 16 13 10 6 10 10 10 13 13 10 19 19 19 16 6 6 10 10 16 19 19 19 13 10 10 6 6 6 6 6 6 3 10 10 10 13 13 10
6 6 10 13 6 6 6 6 10 10 10 10 10 10 10 10 23 23 19 13 10 13 10 13 23 19 19 16 10 10 10 6 13 13 6 3 0 3 3 10 10 10 6
13 16 16 10 10 10 10 10 10 10 3 0 3 6 13 13 13 13 13 13 13 13 13 13 23 19 19 16 13 10 10 10 10 13 10 10 3 3 3 3 6 6 10
10 23 19 13 6 6 10 6 3 0 3 3 10 10 13 13 13 13 13 13 10 13 13 16 23 26 19 19 19 10 10 13 10 10 13 10 10 6 3 3 0 3 3

GEFSSE_con_cape1000_360.txt.gz
Probability
26 42 52 61 61 65 71 65 61 68 74 65 71 65 61 58 58 61 58 61 65 61 65 55 65 61 48 61 65 61 61 65 68 58 58 61 65 68 58 42 39 23 55
23 42 61 65 65 71 68 65 65 68 71 68 65 58 58 58 61 58 61 65 58 61 58 68 58 48 55 58 65 58 61 65 68 68 58 48 61 61 65 48 42 39 55
23 42 45 61 65 68 65 61 61 65 61 61 58 61 65 61 58 55 58 68 61 65 65 65 55 58 55 58 55 48 58 58 55 61 48 42 39 58 61 45 48 55 48
19 32 42 61 65 61 61 58 55 61 55 52 55 58 61 61 58 52 65 58 61 61 61 65 65 55 58 55 55 48 48 48 48 45 42 29 26 58 61 55 55 42 39
26 32 45 58 61 58 65 65 61 61 61 58 52 52 55 58 58 55 55 55 52 48 55 55 52 39 52 52 52 52 48 42 39 35 23 29 48 58 55 58 52 42 39
23 35 45 61 58 55 61 65 61 58 52 52 52 55 55 58 58 58 58 55 48 48 48 52 48 55 65 65 52 52 45 45 35 23 32 32 45 48 55 55 52 48 45
16 32 42 58 55 52 58 52 52 52 58 48 52 58 61 58 58 55 52 55 45 48 48 52 58 58 52 52 45 48 52 42 26 29 32 42 52 48 48 48 45 39 48
16 26 39 52 52 52 52 52 55 55 55 52 45 48 55 52 55 52 58 61 55 55 48 52 52 58 58 39 52 48 48 35 26 10 16 35 55 45 45 52 48 45 48
19 23 32 32 42 42 52 48 55 45 45 45 52 45 45 45 52 48 52 48 48 48 52 52 48 52 45 52 55 48 48 39 26 23 6 23 45 52 55 52 48 52 35
23 23 32 39 45 48 39 42 45 42 42 42 45 42 58 45 45 48 52 55 52 48 52 52 48 55 58 52 52 45 45 35 19 13 13 16 35 48 48 45 52 55 39
26 32 29 35 45 45 39 32 39 48 39 42 48 52 55 48 29 39 42 42 42 45 48 48 48 58 55 48 39 42 32 23 16 16 26 29 29 35 48 45 48 45 45
26 29 32 32 35 45 35 48 48 45 48 58 58 58 61 55 45 29 42 42 39 39 42 42 42 48 39 23 23 32 29 16 19 23 26 45 35 35 45 42 32 32 35
26 32 29 32 35 35 39 39 55 48 58 45 48 65 65 48 35 35 39 39 42 39 32 39 35 16 19 16 23 23 19 19 32 26 29 45 45 42 26 29 35 35 35
26 26 29 32 35 39 42 32 42 42 35 45 52 61 61 58 55 39 42 29 32 42 45 39 48 35 23 26 29 26 29 29 26 29 42 48 52 48 35 35 35 39 39
29 29 29 32 35 45 48 42 32 39 32 39 48 48 55 52 52 39 55 55 32 42 45 45 39 48 45 29 26 26 26 32 29 29 39 48 42 39 39 39 35 32 32
23 32 29 26 35 52 52 55 45 39 55 45 45 48 55 55 52 55 55 61 45 52 52 48 39 42 42 35 35 32 39 39 42 42 45 48 45 42 35 32 35 39 35
19 23 26 26 29 52 52 55 48 42 42 48 52 52 55 45 58 61 58 61 55 48 61 65 52 45 42 39 48 45 42 39 42 45 45 45 45 45 48 45 42 35 42
19 35 32 10 26 45 52 48 45 45 42 42 42 52 52 52 52 61 55 52 55 55 58 65 52 39 52 45 45 39 35 52 45 45 45 48 48 39 39 42 48 45 42
32 45 48 45 42 45 52 58 48 48 48 45 52 52 48 55 58 45 52 48 48 45 48 35 42 48 48 48 42 52 39 42 42 42 45 48 48 45 39 42 42 42 35
45 52 55 48 52 48 61 65 55 52 42 52 52 52 48 48 48 42 42 45 52 55 55 55 61 58 68 68 29 35 42 39 42 42 42 35 42 39 39 39 39 42 45
52 55 61 55 61 65 61 58 58 45 48 39 48 48 48 52 42 52 45 52 48 52 58 48 52 52 55 58 42 35 32 32 42 42 35 35 35 39 35 32 35 32 39
55 58 61 65 61 55 65 65 61 58 48 42 39 45 45 48 45 39 52 48 55 55 58 52 52 52 48 52 45 35 32 35 39 26 42 42 29 29 35 32 32 35 32
48 55 48 61 58 58 61 61 58 58 55 45 45 45 48 45 45 48 48 45 55 52 52 55 52 55 52 52 48 29 29 23 32 32 42 39 42 45 29 32 35 35 35
48 52 65 71 68 71 68 61 58 58 48 55 55 48 52 52 48 48 48 45 45 45 52 48 48 55 55 48 45 48 45 45 35 29 32 39 42 45 42 35 23 32 32
48 48 55 68 74 74 71 61 65 55 45 48 45 48 55 55 58 48 52 42 45 45 45 45 48 48 48 48 52 42 42 45 42 42 39 45 48 42 32 35 29 26 26
48 52 52 65 71 71 61 65 61 58 52 52 52 45 45 42 42 42 42 39 42 39 42 52 52 48 48 52 48 48 48 42 42 39 39 39 39 32 29 32 29 23 19